Flag for Thailand Weather past 2 weeks in Phuket, Thailand

Now
79 °F

Light rain. Broken clouds.


Feels Like: 82 °F
Forecast: 79 / 89 °F
Wind: 5 mph from East

Location: Phuket Airport

Current Time: May 27, 2015 at 11:41:08 AM

Latest Report: May 27, 2015 at 11:00 AM


Visibility: 4 mi

Pressure: 29.92 "Hg

Humidity: 89%

Dew point: 75 °F

Location of PhuketLocation

Historic Weather in Phuket — Graph

°F

Phuket temperature yesterday

Maximum temperature yesterday: 88 °F (at 2:00 PM)
Minimum temperature yesterday: 75 °F (at 5:30 PM)
Average temperature yesterday: 78 °F

Past Weeks' High & Low Weather Summary

 TemperatureHumidityPressure
High91 °F (May 23, 10:30 AM)94% (May 13, 7:00 AM)29.92 "Hg (May 13, 7:00 AM)
Low73 °F (May 18, 6:00 AM)55% (May 12, 3:00 PM)29.74 "Hg (May 17, 4:30 PM)
Average83 °F77%29.85 "Hg
* Reported May 12 10:00 AM — May 27 10:30 AM, Phuket, Weather by CustomWeather, © 2015

Note: Actual official high and low records may vary slightly from our data, if they occured in-between our weather recording intervals... More about our weather records

Advertising

Phuket weather history for previous 24 hours

 ConditionsComfort  
Time TempWeatherWind HumidityBarometerVisibility
10:30 AM
Wed, May 27
79 °FBroken clouds.2 mph89%29.92 "Hg4 mi
10:00 AM79 °FRain. Broken clouds.3 mph89%29.92 "Hg3 mi
9:30 AM79 °FBroken clouds.1 mph89%29.92 "Hg5 mi
9:00 AM77 °FLight rain. Broken clouds.2 mph94%29.89 "Hg4 mi
8:30 AM77 °FStrong thunderstorms. Broken clouds.2 mph94%29.89 "Hg4 mi
8:00 AM77 °FLight rain. Broken clouds.3 mph89%29.89 "Hg4 mi
7:30 AM77 °FLight rain. Broken clouds.3 mph89%29.89 "Hg4 mi
7:00 AM77 °FLight rain. Broken clouds.6 mph89%29.86 "Hg4 mi
6:30 AM77 °FRain. Broken clouds.2 mph89%29.86 "Hg3 mi
6:00 AM77 °FThunderstorms. Partly cloudy.12 mph89%29.83 "Hg3 mi
5:30 AM77 °FPartly cloudy.2 mph89%29.83 "Hg4 mi
5:00 AM77 °FPassing clouds.2 mph89%29.83 "Hg4 mi
4:30 AM75 °FPassing clouds.2 mph94%29.83 "Hg4 mi
3:30 AM75 °FPassing clouds.2 mph94%29.83 "Hg4 mi
3:00 AM75 °FPassing clouds.2 mph94%29.83 "Hg4 mi
2:30 AM75 °FPassing clouds.2 mph89%29.83 "Hg4 mi
2:00 AM75 °FPassing clouds.1 mph89%29.83 "Hg4 mi
1:30 AM75 °FPassing clouds.2 mph89%29.86 "Hg4 mi
1:00 AM75 °FPassing clouds.3 mph89%29.86 "Hg4 mi
12:30 AM75 °FPassing clouds.1 mph89%29.89 "Hg4 mi
12:00 AM75 °FPassing clouds.No wind89%29.89 "Hg4 mi
11:30 PM
Tue, May 26
75 °FPassing clouds.2 mph89%29.89 "Hg4 mi
11:00 PM75 °FPassing clouds.2 mph89%29.89 "Hg4 mi
10:30 PM75 °FPassing clouds.No wind89%29.92 "Hg4 mi
10:00 PM75 °FPassing clouds.2 mph89%29.92 "Hg4 mi
9:30 PM75 °FPartly cloudy.No wind89%29.89 "Hg4 mi
9:00 PM75 °FLight rain. Partly cloudy.1 mph89%29.89 "Hg4 mi
8:30 PM75 °FLight rain. Partly cloudy.2 mph89%29.92 "Hg4 mi
8:00 PM75 °FLight rain. Partly cloudy.10 mph89%29.89 "Hg4 mi
7:30 PM75 °FLight rain. Partly cloudy.12 mph89%29.92 "Hg4 mi
7:00 PM75 °FRain. Partly cloudy.15 mph89%29.92 "Hg3 mi
6:30 PM75 °FHeavy rain. Broken clouds.16 mph89%29.92 "Hg1 mi
6:00 PM75 °FRain. Broken clouds.13 mph83%29.92 "Hg3 mi
5:30 PM75 °FRain. Broken clouds.12 mph94%29.89 "Hg3 mi
5:00 PM77 °FHeavy rain. Broken clouds.8 mph83%29.89 "Hg1 mi
4:30 PM77 °FLight rain. Broken clouds.6 mph83%29.86 "Hg4 mi
4:00 PM77 °FRain. Broken clouds.9 mph83%29.86 "Hg2 mi
3:30 PM77 °FRain. Broken clouds.10 mph89%29.86 "Hg3 mi
3:00 PM77 °FLight rain. Broken clouds.7 mph89%29.86 "Hg4 mi
2:30 PM88 °FBroken clouds.9 mph66%29.83 "Hg4 mi
2:00 PM88 °FPartly sunny.9 mph66%29.83 "Hg5 mi
1:30 PM86 °FPartly sunny.6 mph75%29.86 "Hg5 mi
1:00 PM84 °FBroken clouds.3 mph74%29.89 "Hg4 mi
12:30 PM82 °FBroken clouds.5 mph79%29.89 "Hg4 mi
12:00 PM84 °FPartly sunny.8 mph74%29.89 "Hg4 mi
11:30 AM84 °FRain. Broken clouds.7 mph79%29.89 "Hg2 mi
11:00 AM84 °FPartly sunny.2 mph79%29.89 "Hg4 mi
Weather by CustomWeather, © 2015

See weather overviewHow to use our weather pages